[[{"header":{"parameterUnit":"m.s-1","parameterCategory":1,"la1":30.2991,"la2":30.254,"lo1":-89.0895,"lo2":-89.0444,"dy":0.0017,"dx":0.0017,"nx":28,"ny":28,"refTime":"2024-04-01T21:00:00:Z","depth":0,"parameterNumber":2,"parameterNumberName":"U-component_of_WINDS"},"data":[0,0,0,0,0,0,0,0,0,0,0,0,0,0,0,0,0,0,0,0,0,0,0,0,0,0,0,0,0,0,0,0,0,0,0,0,0,0,0,0,0,0,0,0,0,0,0,0,0,0,0,0,0,0,0,0,0,0,4.3828,4.3828,0,4.3784,4.3783,4.3783,4.3682,4.368,4.3678,4.3676,4.3634,4.3635,4.3636,0,0,0,0,0,0,0,0,0,0,0,0,0,4.3831,4.3832,4.3828,4.3828,4.3827,4.3784,4.3783,4.3783,4.3683,4.368,4.3678,4.3675,4.3634,4.3635,4.3636,0,0,0,0,0,0,0,0,0,0,0,0,0,4.3813,4.3832,4.3828,4.3772,4.3766,4.3784,4.3783,4.3783,4.3683,4.368,4.3677,4.3674,4.3634,4.3635,4.3636,4.3706,0,0,4.364,4.364,0,0,0,0,0,0,0,0,4.3814,4.3813,4.3781,4.3776,4.377,4.3735,4.3769,4.3757,4.3684,4.3715,4.3676,4.3672,4.3671,4.3669,4.3667,4.3704,4.3702,4.364,4.3641,4.3641,4.3641,0,0,0,0,0,0,0,4.3815,4.3814,4.3811,4.378,4.3774,4.375,4.3744,4.3766,4.3711,4.3712,4.3704,4.37,4.3667,4.3666,4.3665,4.3701,4.364,4.3641,4.3642,4.3642,4.3796,4.3799,0,0,0,0,0,0,4.3824,4.3816,4.3812,4.3809,4.3785,4.3753,4.3746,4.375,4.371,4.3701,4.3703,4.3696,4.3666,4.3664,4.3664,4.3744,4.3641,4.3642,4.3643,4.3792,4.3796,4.38,0,0,0,0,0,0,4.3825,4.3825,4.3814,4.3811,4.3807,4.3756,4.3761,4.375,4.3749,4.3704,4.3694,4.3712,4.3663,4.3662,4.3696,4.3741,4.3643,4.3644,4.3788,4.3794,4.3798,4.3904,0,0,0,0,0,0,4.3825,4.3826,4.385,4.3812,4.3808,4.3846,4.3764,4.3752,4.3751,4.3741,4.3709,4.3701,4.3661,4.3695,4.3698,4.3741,4.3645,4.3784,4.3791,4.3797,4.3896,4.3912,4.3926,0,0,0,0,0,4.3826,4.3882,4.3852,4.3852,4.3838,4.3849,4.3847,4.3798,4.3755,4.3781,4.3752,4.3702,4.3736,4.3699,4.3701,4.3746,4.3781,4.3789,4.3796,4.389,4.3909,4.3925,0,0,0,0,0,0,4.3928,4.3876,4.3842,4.3887,4.3873,4.3832,4.3862,4.3819,4.3818,4.3809,4.3749,4.3743,4.3786,4.3769,4.373,4.3812,4.3751,4.3759,4.3821,4.3839,4.3854,4.3856,4.3646,0,0,0,0,0,4.3955,4.3967,4.3922,4.3967,4.3962,4.3914,4.3917,4.388,4.3864,4.3857,4.3831,4.3818,4.3825,4.3831,4.3836,4.3894,4.3887,4.3926,4.394,4.3953,4.396,4.3992,4.4009,4.3825,4.3825,4.3825,0,0,4.4013,4.3986,4.3997,4.3987,4.3971,4.3987,4.3909,4.3928,4.394,4.386,4.3891,4.3872,4.3853,4.3901,4.392,4.3888,4.401,4.3962,4.3972,4.3973,4.4001,4.4019,4.4034,4.383,4.3829,4.3828,0,0,4.4125,4.4106,4.4141,4.4128,4.4106,4.4074,4.4083,4.4048,4.4032,4.4062,4.4004,4.4017,4.4031,4.4021,4.4018,4.413,4.4085,4.4133,4.4209,4.424,4.4255,4.4267,4.4308,4.4323,4.4141,4.4141,4.4142,0,4.4199,4.4218,4.4165,4.4188,4.4186,4.4116,4.4152,4.4143,4.4124,4.4125,4.4089,4.4106,4.4089,4.4133,4.4161,4.4161,4.417,4.4136,4.4257,4.4269,4.428,4.4318,4.4333,4.4147,4.4147,4.4146,4.4145,0,4.4311,4.4326,4.4358,4.4341,4.4343,4.4373,4.4326,4.4335,4.43,4.4272,4.4305,4.4282,4.4281,4.4289,4.4255,4.433,4.4311,4.4267,4.4204,4.4304,4.4339,4.4353,4.4156,4.4154,4.4152,4.4151,0,0,4.4484,4.4439,4.4452,4.4444,4.4416,4.4427,4.4456,4.4454,4.4463,4.4454,4.4477,4.4492,4.4451,4.4448,4.4412,4.444,4.4531,4.4393,4.4391,4.4419,4.4614,4.4647,4.4664,4.4502,4.4504,4.4506,4.4615,0,4.4589,4.4633,4.4588,4.4642,4.4656,4.459,4.4615,4.4602,4.4578,4.4588,4.4562,4.4574,4.4519,4.4517,4.4541,4.4515,4.4569,4.4507,4.4524,4.4525,4.453,4.4682,4.4716,4.482,4.4629,4.4631,4.4632,0,4.4717,4.4713,4.4769,4.4739,4.4743,4.4766,4.4763,4.4773,4.4757,4.4738,4.4736,4.4693,4.472,4.466,4.4698,4.4656,4.4661,4.465,4.4653,4.4652,4.4584,4.4685,4.4852,4.4867,4.4653,4.4652,4.465,0,4.4838,4.4847,4.4882,4.4877,4.4843,4.4861,4.4849,4.483,4.4833,4.483,4.4832,4.4834,4.4834,4.4837,4.4797,4.4756,4.4841,4.4776,4.4826,4.4828,4.4846,4.4845,4.5015,4.485,4.485,4.485,4.485,0,4.496,4.4997,4.4936,4.4957,4.4997,4.4946,4.4987,4.4968,4.4952,4.497,4.4915,4.4933,4.4878,4.4891,4.486,4.4897,4.4898,4.4884,4.4876,4.4889,4.4891,4.489,4.4882,4.4854,4.4853,4.4852,4.4852,0,4.5101,4.5061,4.5095,4.5061,4.5053,4.5085,4.5056,4.5075,4.5049,4.5072,4.5075,4.5034,4.5046,4.5007,4.5013,4.4992,4.5046,4.5026,4.5051,4.5045,4.5097,4.5093,4.5273,4.5294,4.5116,4.5118,4.512,0,4.5181,4.5207,4.5177,4.5184,4.5174,4.5187,4.519,4.5142,4.5147,4.5133,4.5155,4.5163,4.5167,4.5191,4.5162,4.5167,4.5147,4.521,4.5147,4.516,4.5148,4.5146,4.5149,4.5222,4.5224,4.5226,4.5228,0,4.5327,4.5307,4.5312,4.5313,4.5318,4.5316,4.531,4.532,4.5268,4.5278,4.529,4.5293,4.53,4.5309,4.5309,4.5297,4.5255,4.5248,4.526,4.5273,4.5287,4.528,4.5086,4.5243,4.5242,4.5241,4.524,4.5239,4.5439,4.5461,4.5443,4.5452,4.5443,4.5439,4.5456,4.5432,4.5441,4.5443,4.5414,4.5433,4.5419,4.5414,4.5407,4.5422,4.5393,4.541,4.5414,4.5419,4.5428,4.5285,4.5422,4.5421,4.5421,4.542,4.542,0,4.5583,4.5569,4.5578,4.5571,4.558,4.5539,4.5531,4.5541,4.5557,4.5548,4.5553,4.5568,4.5578,4.5551,4.5557,4.5574,4.5555,4.5577,4.5575,4.5573,4.5454,4.5443,4.5593,4.5593,4.5593,4.5593,4.5593,4.5593,4.5658,4.5693,4.5671,4.5701,4.5687,4.5704,4.5703,4.5701,4.5693,4.5712,4.572,4.5702,4.5686,4.5691,4.5699,4.5691,4.5695,4.5725,4.571,4.5599,4.5582,4.5566,4.5555,4.5726,4.5726,4.5828,4.5829,4.583]},{"header":{"parameterUnit":"m.s-1","parameterCategory":1,"la1":30.2991,"la2":30.254,"lo1":-89.0895,"lo2":-89.0444,"dy":0.0017,"dx":0.0017,"nx":28,"ny":28,"refTime":"2024-04-01T21:00:00:Z","depth":0,"parameterNumber":3,"parameterNumberName":"V-component_of_WINDS"},"data":[0,0,0,0,0,0,0,0,0,0,0,0,0,0,0,0,0,0,0,0,0,0,0,0,0,0,0,0,0,0,0,0,0,0,0,0,0,0,0,0,0,0,0,0,0,0,0,0,0,0,0,0,0,0,0,0,0,0,3.7173,3.7178,0,3.7636,3.7642,3.7647,3.7765,3.7763,3.776,3.7757,3.8234,3.8249,3.8264,0,0,0,0,0,0,0,0,0,0,0,0,0,3.6392,3.6406,3.7173,3.7179,3.7184,3.7636,3.7642,3.7648,3.7766,3.7762,3.7759,3.7756,3.8229,3.8247,3.8265,0,0,0,0,0,0,0,0,0,0,0,0,0,3.6781,3.6411,3.7172,3.7297,3.7313,3.7634,3.7642,3.765,3.7767,3.7762,3.7758,3.7754,3.8223,3.8245,3.8268,3.8498,0,0,3.8338,3.8348,0,0,0,0,0,0,0,0,3.6759,3.681,3.7273,3.7289,3.7308,3.7639,3.7542,3.7934,3.7768,3.7595,3.7757,3.7752,3.8039,3.8077,3.8174,3.852,3.854,3.834,3.8354,3.8364,3.8371,0,0,0,0,0,0,0,3.6732,3.679,3.7356,3.728,3.7301,3.7332,3.7382,3.7617,3.7836,3.7609,3.7619,3.7672,3.8048,3.8151,3.8186,3.8547,3.834,3.836,3.8375,3.8384,3.9106,3.9111,0,0,0,0,0,0,3.6683,3.6767,3.7342,3.737,3.7017,3.7349,3.7405,3.7537,3.7834,3.7875,3.7675,3.7676,3.8114,3.8159,3.8203,3.8493,3.8364,3.8386,3.8399,3.9101,3.9107,3.9113,0,0,0,0,0,0,3.6666,3.6733,3.7323,3.7072,3.7149,3.7367,3.7514,3.7548,3.7652,3.7884,3.7923,3.7741,3.8112,3.8171,3.8424,3.8511,3.8396,3.8417,3.9095,3.9103,3.911,3.9072,0,0,0,0,0,0,3.6643,3.6726,3.6815,3.7073,3.7162,3.7535,3.7519,3.756,3.7691,3.7696,3.7955,3.7994,3.8113,3.8388,3.8446,3.8541,3.8435,3.9088,3.9098,3.9108,3.9067,3.9078,3.9088,0,0,0,0,0,3.6614,3.6786,3.6819,3.6888,3.7278,3.754,3.7591,3.7724,3.7697,3.7789,3.7938,3.7986,3.8491,3.8413,3.848,3.8582,3.9083,3.9095,3.9107,3.9062,3.9076,3.9088,0,0,0,0,0,0,3.6534,3.6822,3.6862,3.7122,3.7305,3.7559,3.7679,3.7734,3.793,3.7926,3.8084,3.8142,3.8384,3.8509,3.8416,3.882,3.8787,3.8813,3.8731,3.8746,3.8756,3.8721,3.8455,0,0,0,0,0,3.6546,3.6734,3.6976,3.7182,3.7272,3.7459,3.7579,3.7665,3.7862,3.794,3.8108,3.8297,3.8499,3.8629,3.8828,3.9085,3.9144,3.9188,3.9198,3.9206,3.9227,3.9373,3.9396,3.9153,3.9153,3.9152,0,0,3.6574,3.6755,3.6864,3.7171,3.7323,3.7515,3.7524,3.7727,3.7871,3.7972,3.8221,3.835,3.8572,3.8828,3.8949,3.8939,3.9306,3.9221,3.9225,3.9243,3.9387,3.941,3.943,3.9161,3.9159,3.9158,0,0,3.6723,3.6878,3.7068,3.722,3.745,3.7574,3.7618,3.7865,3.7954,3.8207,3.8286,3.846,3.8804,3.896,3.9083,3.929,3.9342,3.9351,3.9406,3.9546,3.9565,3.9583,3.9658,3.9683,3.937,3.937,3.937,0,3.6729,3.7021,3.7158,3.7358,3.7491,3.7589,3.7783,3.7924,3.8207,3.8297,3.8281,3.8715,3.8872,3.9166,3.9216,3.9313,3.937,3.9323,3.9551,3.9571,3.9589,3.9663,3.969,3.937,3.937,3.937,3.937,0,3.7018,3.7219,3.7344,3.7615,3.7762,3.7957,3.8124,3.8257,3.833,3.8455,3.8711,3.8902,3.9141,3.9217,3.9291,3.9522,3.9509,3.952,3.949,3.961,3.9681,3.971,3.937,3.937,3.937,3.937,0,0,3.7131,3.7474,3.7518,3.7642,3.7903,3.8062,3.8261,3.8494,3.8605,3.8797,3.8969,3.9258,3.927,3.941,3.9503,3.9626,3.9779,3.9623,3.9631,3.9646,4.0046,4.0037,4.0067,3.9813,3.9819,3.9824,4.0028,0,3.7313,3.7673,3.7802,3.8099,3.8287,3.8383,3.8557,3.8736,3.8858,3.9036,3.9171,3.9373,3.9374,3.9459,3.9585,3.9733,3.9861,3.972,3.9976,3.9984,3.9919,4.0104,4.0096,4.0279,4.0057,4.0061,4.0065,0,3.7575,3.7769,3.8084,3.8322,3.8406,3.856,3.8785,3.8953,3.9158,3.9238,3.9394,3.9478,3.9692,3.9647,3.9944,3.9844,3.9957,4.0045,4.0056,4.0086,4.0032,4.0141,4.034,4.0368,4.011,4.0107,4.0103,0,3.7626,3.7967,3.82,3.8303,3.8587,3.8693,3.8816,3.9017,3.9149,3.9345,3.9432,3.965,3.977,3.9937,4.0077,4.0032,4.0361,4.0329,4.0435,4.0431,4.0501,4.0495,4.0722,4.0571,4.057,4.057,4.0569,0,3.7818,3.8007,3.8228,3.8371,3.8586,3.8732,3.8942,3.9071,3.9248,3.9419,3.9515,3.9673,3.9848,4.0029,4.014,4.037,4.0423,4.0494,4.0521,4.0487,4.0477,4.0563,4.0555,4.0577,4.0575,4.0574,4.0573,0,3.7913,3.8068,3.8328,3.8575,3.8641,3.8789,3.9,3.9144,3.9269,3.9483,3.9542,3.974,3.9958,4.0114,4.0395,4.0469,4.0716,4.0742,4.0646,4.0661,4.0758,4.0747,4.105,4.1098,4.0911,4.0913,4.0914,0,3.8025,3.8173,3.8435,3.8556,3.8679,3.8872,3.9007,3.9157,3.9294,3.9539,3.9652,3.9877,4.0065,4.0408,4.0577,4.0792,4.0826,4.0917,4.0859,4.0819,4.0829,4.0818,4.0834,4.0925,4.0927,4.0928,4.0929,0,3.8209,3.8278,3.8469,3.8687,3.8845,3.9024,3.9204,3.9298,3.948,3.9628,3.9852,3.9997,4.0284,4.0506,4.0738,4.0865,4.0928,4.0945,4.0982,4.0948,4.0887,4.0922,4.0671,4.0938,4.0937,4.0937,4.0936,4.0936,3.8318,3.8454,3.8659,3.8869,3.902,3.9186,3.9333,3.9476,3.9665,3.991,3.9987,4.0219,4.0421,4.0739,4.0869,4.1053,4.1049,4.1101,4.1115,4.1125,4.1124,4.0856,4.1096,4.1096,4.1096,4.1096,4.1095,0,3.8507,3.8644,3.8835,3.9084,3.9249,3.9292,3.9494,3.9629,3.9832,4.0015,4.0197,4.0454,4.067,4.0855,4.1078,4.119,4.1224,4.1244,4.1238,4.1266,4.1115,4.1062,4.1212,4.1212,4.1212,4.1212,4.1212,4.1212,3.8625,3.8858,3.8951,3.926,3.9397,3.9625,3.9736,3.989,4.0037,4.032,4.0499,4.0618,4.0802,4.104,4.124,4.1289,4.1367,4.138,4.1435,4.1291,4.1277,4.1264,4.1215,4.1395,4.1395,4.1572,4.1573,4.1575]}]]